Regional Weather Roundup
Issued by NWS

Home | Current Version | Previous Version | Text Only | Print | Product List | Glossary On
Versions: 1 2 3 4 5 6 7 8 9 10 11 12 13 14 15 16 17 18 19 20 21 22 23 24 25 26 27 28 29 30 31 32 33 34 35 36 37 38 39 40 41 42 43 44 45 46 47 48 49 50
309
ASUS46 KPQR 162210
RWROR

OREGON REGIONAL WEATHER ROUNDUP
NATIONAL WEATHER SERVICE PORTLAND OR
300 PM PDT MON OCT 16 2017

NOTE: "FAIR" INDICATES FEW OR NO CLOUDS BELOW 12,000 FEET WITH
NO SIGNIFICANT WEATHER AND/OR OBSTRUCTIONS TO VISIBILITY.

ORZ001>013-162300-
NORTHWEST OREGON


CITY           SKY/WX    TMP DP  RH WIND       PRES   REMARKS
ASTORIA        SUNNY     59  47  64 NW8       30.22S
NEWPORT        SUNNY     59  50  72 NW13      30.23F
PORTLAND       MOSUNNY   65  46  50 N3        30.19F
VANCOUVER WA   SUNNY     63  47  55 CALM      30.19F
SCAPPOOSE      SUNNY     62  46  55 SE3       30.19F
HILLSBORO      SUNNY     65  46  50 CALM      30.18F
AURORA         SUNNY     63  45  51 CALM      30.21F
MCMINNVILLE    SUNNY     64  50  60 CALM      30.20F
SALEM          SUNNY     66  48  52 CALM      30.18F
CORVALLIS      SUNNY     63  48  58 CALM      30.19F
EUGENE         MOSUNNY   66  49  54 VRB3      30.19F
$$

ORZ021-028-162300-
SOUTHWEST OREGON


CITY           SKY/WX    TMP DP  RH WIND       PRES   REMARKS
NORTH BEND     SUNNY     59  49  69 N15       30.20F
BROOKINGS      SUNNY     71  37  28 W5        30.14F
ROSEBURG       SUNNY     70  46  42 CALM      30.16F
SEXTON SUMMIT  SUNNY     68  26  20 CALM      30.25F
GRANTS PASS    FAIR      73  30  20 CALM      30.20F
MEDFORD        SUNNY     73  28  18 VRB3      30.17F
$$

ORZ014>016-041-162300-
COLUMBIA GORGE


CITY           SKY/WX    TMP DP  RH WIND       PRES   REMARKS
TROUTDALE      SUNNY     65  44  46 CALM      30.19F
HOOD RIVER     SUNNY     63  43  48 CALM      30.16F
THE DALLES     SUNNY     66  40  38 NW3       30.14F
$$

ORZ029>031-041-044-049-050-061>064-502-503-505>511-162300-
EASTERN OREGON


CITY           SKY/WX    TMP DP  RH WIND       PRES   REMARKS
MADRAS         SUNNY     72  64  78 NE3       30.20F
REDMOND        SUNNY     72  26  18 SE3       30.21F
BEND           SUNNY     73  30  20 CALM      30.22F
PRINEVILLE     SUNNY     70  30  23 CALM      30.22F
KLAMATH FALLS  SUNNY     73  26  17 SE5       30.26F
LAKEVIEW       SUNNY     72  18  13 VRB6      30.29F
HERMISTON      SUNNY     68  37  32 NW5       30.13F
PENDLETON      SUNNY     72  29  20 CALM      30.14F
JOHN DAY       SUNNY     69  27  21 CALM      30.24F
MEACHAM        SUNNY     67  29  24 CALM      30.21F
LA GRANDE      SUNNY     65  27  23 S20       30.22F
BAKER CITY     SUNNY     66  25  21 E12       30.26F
BURNS          SUNNY     62  27  26 CALM      30.29F
ROME             N/A     68  21  16 W3        30.27F
ONTARIO        NOT AVBL
$$




USA.gov is the U.S. government's official web portal to all federal, state and local government web resources and services.